Location: Rovere della Luna
(46.2500°N, 11.1667°E)
Time: 12:54:55
(UTC+00:00)

Daily predictions for brighter satellites

Satellite Brightness Start Highest point End
(mag) Time Altitude Azimuth Time Altitude Azimuth Time Altitude Azimuth
Cosmos 2058 Rocket 3.5 16:41:22 10° NNW 16:45:53 71° W 16:50:21 10° S
Cosmos 1455 2.1 16:43:57 10° N 16:47:48 76° E 16:51:39 10° SSE
Cosmos 405 4.1 16:45:16 10° NNE 16:48:07 23° ENE 16:50:58 10° SE
ARGOS 4.5 16:45:18 10° E 16:48:50 18° ENE 16:52:22 10° NNE
SL-24 R/B 4.5 16:44:41 10° SSE 16:49:12 82° WSW 16:54:15 10° NNW
Cosmos 1626 Rocket 3.7 16:45:38 10° S 16:49:55 53° E 16:54:16 10° NNE
Cosmos 1092 Rocket 4.3 16:44:54 10° SSE 16:50:43 46° E 16:56:32 10° NNE
Cosmos 2263 Rocket 4.4 16:48:22 10° W 16:52:19 19° NW 16:56:14 10° N
Cosmos 1898 Rocket 3.6 16:48:05 10° S 16:53:12 56° ESE 16:58:20 10° NNE
Cosmos 923 Rocket 4.3 16:48:44 10° NNW 16:54:05 76° WSW 16:59:21 10° SSE
CZ-4C R/B 3.9 16:53:06 10° N 16:56:11 46° WNW 16:59:17 10° SSW
TELKOM 3 3.8 16:54:43 10° WNW 16:56:41 29° N 16:58:27 12° ENE
CZ-2C R/B 4.4 16:55:15 10° ENE 16:57:20 12° E 16:59:23 10° ESE
Cosmos 1680 Rocket 3.5 16:53:07 10° NNW 16:58:23 90° WSW 17:03:36 10° SSE
Nadezhda 4 Rocket 4.0 16:53:13 10° S 16:59:26 86° E 17:05:38 10° N
Cosmos 1328 4.2 16:58:25 10° SSE 17:02:11 42° E 17:05:57 10° NNE
CZ-4B R/B 1.7 17:01:37 10° NNE 17:04:47 42° E 17:07:51 10° S
CZ-2D R/B 3.5 17:01:34 10° SE 17:05:14 45° ENE 17:08:55 10° N
Landsat 5 4.5 17:02:12 10° N 17:05:53 43° WNW 17:09:30 10° SW
MOS 1 Rocket 3.6 17:02:29 10° NNE 17:06:30 38° E 17:10:33 10° SSE
Meteor 2-8 Rocket 4.5 17:02:48 10° N 17:08:50 58° ENE 17:14:52 10° SSE
Cosmos-2242 3.7 17:05:57 10° N 17:09:50 32° ENE 17:13:43 10° SE
NOSS 3-1 (C) 4.2 17:05:06 10° NW 17:12:38 85° SW 17:21:23 10° SSE
COSMO-SKYMED 1 2.7 17:09:38 10° NNE 17:13:55 56° E 17:18:11 10° S
BREEZE-M DEB (TANK) 2.2 17:13:40 10° WNW 17:15:50 42° N 17:17:15 19° ENE
Cosmos 1937 Rocket 3.5 17:10:36 10° S 17:15:51 65° ESE 17:21:08 10° NNE
Cosmos 1758 Rocket 4.0 17:12:27 10° SSE 17:16:39 42° E 17:20:53 10° NNE
Aureole 3 3.8 17:14:36 10° NNW 17:17:32 45° W 17:20:24 10° S
USA 290 2.4 17:18:52 10° N 17:21:57 44° ENE 17:25:01 10° SE
NOSS 2-1 (C) 3.7 17:20:51 10° WSW 17:24:06 49° NW 17:27:19 11° NNE
CZ-4 R/B 4.4 17:21:05 10° SSE 17:25:12 68° ENE 17:29:21 10° N
Cosmos 1833 Rocket 2.6 17:20:20 10° NNW 17:25:56 65° ENE 17:31:30 10° SE
H-2A R/B 2.3 17:22:50 10° SE 17:27:40 46° ENE 17:32:38 10° N
Cosmos 1939 Rocket 3.5 17:25:57 10° S 17:29:58 60° W 17:33:59 10° NNW
NOSS 2-1 (D) 3.9 17:26:53 10° WSW 17:30:04 42° NW 17:33:06 12° NNE
Helios 1A Rocket 3.5 17:26:31 10° SE 17:30:16 34° ENE 17:34:03 10° N
H-2A R/B 3.4 17:26:54 10° N 17:31:01 41° WNW 17:35:02 10° SW
Cosmos 2344 4.3 17:23:17 10° NW 17:32:35 78° NE 17:45:37 10° SE
Cosmos 1602 Rocket 3.8 17:29:06 10° SSW 17:33:27 73° W 17:37:52 10° N
USA 229 DEB 4.0 17:26:45 10° NW 17:34:06 84° SW 17:41:49 10° SSE
Cosmos 44 4.4 17:29:31 10° WSW 17:34:10 42° NW 17:39:06 10° NNE
USA 229 4.0 17:26:51 10° NW 17:34:12 85° SW 17:41:56 10° SSE
Cosmos 2026 Rocket 3.9 17:28:30 10° S 17:34:37 77° E 17:40:53 10° NNE
CZ-3B R/B 2.1 17:32:29 10° NW 17:35:13 84° NE 17:43:43 10° SE
Feng Yun 1-1 Rocket 4.4 17:29:44 10° SSE 17:35:13 79° WSW 17:40:54 10° NNW
SJ 16-02 3.6 17:33:29 10° WSW 17:37:03 23° WNW 17:40:36 10° N
YAOGAN 1 2.6 17:35:01 10° SSE 17:39:14 57° ENE 17:43:30 10° N
Meteor 2-15 Rocket 4.5 17:33:28 10° N 17:39:32 56° ENE 17:45:33 10° SSE
SJ-11-01 4.4 17:36:32 10° SSE 17:41:04 52° ENE 17:45:36 10° N
Cosmos 1689 Rocket 2.3 17:41:34 40° E 17:41:47 41° E 17:44:29 10° S
Cosmos 1844 Rocket 4.4 17:37:39 10° WSW 17:42:31 29° NW 17:47:23 10° N
Cosmos 1553 Rocket 4.0 17:36:17 10° N 17:42:37 59° ENE 17:48:49 10° SSE
Aureole 3 Rocket 2.7 17:40:01 10° NNW 17:43:17 81° W 17:47:24 10° S
COSMOS 2406 3.3 17:39:29 10° NNW 17:45:18 82° WSW 17:51:03 10° SSE
Cosmos 2082 Rocket 2.3 17:40:08 10° NNW 17:45:44 52° ENE 17:51:18 10° SE
HJ-1C 3.8 17:47:04 37° ENE 17:47:04 37° ENE 17:50:04 10° N
Cosmos 1825 Rocket 3.5 17:44:08 10° S 17:48:28 66° E 17:52:52 10° NNE
IRS-1C Rocket 4.2 17:43:30 10° SSE 17:48:45 80° WSW 17:54:02 10° NNW
Meteor 1-27 4.1 17:43:54 10° N 17:49:28 62° ENE 17:54:57 10° SSE
NOSS 3-1 (A) 4.2 17:42:12 10° NW 17:49:47 81° SW 17:58:32 10° SSE
X-37B 1.4 17:47:20 10° W 17:50:24 45° SSW 17:51:36 29° SE
deb Kosmos-1763 4.2 17:48:55 10° N 17:52:24 45° ENE 17:52:52 43° E
ISS -2.7 17:50:15 10° WNW 17:53:21 32° N 17:53:50 30° NNE
Okean O Rocket 4.3 17:51:29 10° SW 17:54:56 22° W 17:58:24 10° NW
ATLAS 5 CENTAUR R/B 4.2 17:57:29 10° NNW 17:58:53 11° N 18:00:20 10° NNE
CZ-4 R/B 1.5 17:54:55 10° S 17:58:57 76° WSW 18:02:56 10° NNW
Iridium 4 Rocket 3.8 17:55:25 10° N 18:00:46 68° W 18:05:37 10° S
ERS-2 2.2 17:58:38 12° N 18:02:01 76° WNW 18:05:38 10° SSW
CSL-04 Rocket 3.6 17:57:53 10° SSE 18:03:15 62° ENE 18:08:42 10° N
Okean-O 2.8 18:02:00 10° S 18:06:25 75° WSW 18:10:52 10° NNW
USA 234 4.2 18:05:52 24° NE 18:08:55 35° N 18:14:43 10° WNW
S3M 3.9 18:03:02 10° N 18:09:07 65° ENE 18:15:12 10° SSE
CZ-4C R/B 4.3 18:05:09 10° NNW 18:09:30 19° N 18:11:46 16° NE
Cosmos 1346 Rocket 3.1 18:07:39 10° SSW 18:11:34 67° WNW 18:15:11 12° N
Cosmos 1655 Rocket 4.0 18:05:42 10° S 18:11:46 58° E 18:17:51 10° NNE
Cosmos 2278 Rocket 2.4 18:06:37 10° SSW 18:12:17 74° WNW 18:17:11 14° NNE
Cosmos 1953 Rocket 3.4 18:10:37 10° S 18:14:57 83° E 18:17:58 20° NNE
CZ-2C R/B 4.4 18:09:51 10° S 18:15:04 45° W 18:20:33 10° NNW
Cosmos 2292 Rocket 3.3 18:14:53 10° S 18:19:47 79° E 18:20:41 53° NNE
SAR-Lupe-4 4.2 18:17:50 22° N 18:19:56 56° WNW 18:23:27 10° SSW
Cosmos 44 Rocket 3.2 18:17:41 10° SSW 18:22:33 67° ESE 18:23:19 57° ENE
ARGOS 3.2 18:23:06 10° S 18:28:27 77° WSW 18:33:53 10° NNW
Meteor 2-2 Rocket 4.3 18:24:43 10° N 18:30:41 66° ENE 18:34:20 25° SSE
Cosmos 1869 3.7 18:27:11 10° N 18:30:11 52° NNW 18:30:11 52° NNW
NOSS 2-2 (D) 4.5 18:27:21 10° NNW 18:32:36 56° NE 18:33:29 51° ENE
CZ-2C R/B 2.6 18:33:45 15° NNE 18:38:27 80° ESE 18:44:05 10° S
Cosmos 494 Rocket 3.8 18:37:24 10° NNW 18:42:29 79° NE 18:42:29 79° NE
Cosmos 2150 Rocket 3.9 18:39:52 10° SSW 18:45:01 82° WNW 18:45:58 60° N
Cosmos 1048 Rocket 4.2 18:42:27 10° NNW 18:47:33 67° WSW 18:49:36 36° S
Cosmos 2297 4.1 18:47:13 10° SSW 18:51:23 48° S 18:51:23 48° S
SL-08 RB Rocket 4.5 18:59:18 41° SW 19:00:17 49° W 19:04:39 10° NNW
H-2A R/B 4.1 19:03:10 10° SSW 19:07:18 25° W 19:11:34 10° NW
Cosmos 1125 Rocket 4.0 19:04:31 10° SSW 19:08:41 54° SW 19:08:41 54° SW
Cosmos 2266 Rocket 4.4 19:07:55 10° SSW 19:14:04 61° WNW 19:20:10 10° N
Cosmos 1943 Rocket 4.4 19:22:41 10° SSW 19:23:18 13° SSW 19:23:18 13° SSW
Cosmos 2082 Rocket 4.1 19:24:48 10° NW 19:29:30 27° WSW 19:33:42 12° SSW
ATLAS 2AS CENTAUR R/B 4.3 19:43:49 10° NNW 19:48:20 27° N 19:48:20 27° N
USA 234 4.2 19:53:12 39° NNW 19:53:12 39° NNW 19:57:29 10° NW
CZ-4C R/B 4.3 19:53:49 10° NNW 19:56:58 25° N 19:56:58 25° N
